| time (UTC) | temp F | wind direction | speed MPH | gust MPH | rain 1hr in | rain 24hr in | rain mn in | humidity % | barometer mb |
| 20260507163817 | 62 | 38 | 2.0 | 5.0 | 0.00 | 0.00 | 0.00 | 55 | 985.3 |
| 20260507160817 | 62 | 41 | 2.0 | 4.0 | 0.00 | 0.00 | 0.00 | 56 | 985.3 |
| 20260507153817 | 62 | 67 | 1.0 | 3.0 | 0.00 | 0.00 | 0.00 | 56 | 985.4 |
| 20260507150817 | 62 | 108 | 1.0 | 2.0 | 0.00 | 0.00 | 0.00 | 55 | 985.5 |
| 20260507143817 | 62 | 90 | 0.0 | 2.0 | 0.00 | 0.00 | 0.00 | 55 | 985.6 |
| 20260507140817 | 62 | 360 | 1.0 | 2.0 | 0.00 | 0.00 | 0.00 | 56 | 985.6 |
| 20260507133817 | 62 | 360 | 1.0 | 2.0 | 0.00 | 0.00 | 0.00 | 56 | 985.6 |
| 20260507130817 | 61 | 319 | 2.0 | 3.0 | 0.00 | 0.00 | 0.00 | 60 | 986.2 |
| 20260507123817 | 61 | 333 | 2.0 | 3.0 | 0.00 | 0.00 | 0.00 | 60 | 986.3 |
| 20260507120817 | 61 | 355 | 2.0 | 3.0 | 0.00 | 0.00 | 0.00 | 63 | 986.5 |
| 20260507113817 | 61 | 360 | 2.0 | 3.0 | 0.00 | 0.00 | 0.00 | 63 | 986.6 |
| 20260507110817 | 60 | 18 | 2.0 | 3.0 | 0.00 | 0.00 | 0.00 | 65 | 986.8 |
| 20260507103817 | 59 | 24 | 2.0 | 3.0 | 0.00 | 0.00 | 0.00 | 66 | 986.8 |
| 20260507100817 | 57 | 18 | 1.0 | 5.0 | 0.00 | 0.00 | 0.00 | 71 | 987.1 |
| 20260507093817 | 57 | 6 | 2.0 | 5.0 | 0.00 | 0.00 | 0.00 | 73 | 987.1 |
| 20260507092218 | 56 | 355 | 2.0 | 4.0 | 0.00 | 0.00 | 0.00 | 76 | 987.0 |
| 20260507090617 | 55 | 355 | 2.0 | 4.0 | 0.00 | 0.00 | 0.00 | 78 | 986.9 |
| 20260507085017 | 55 | 360 | 2.0 | 4.0 | 0.00 | 0.00 | 0.00 | 80 | 986.8 |
| 20260507083417 | 54 | 6 | 2.0 | 4.0 | 0.00 | 0.00 | 0.00 | 84 | 986.5 |
| 20260507082617 | 54 | 6 | 2.0 | 4.0 | 0.00 | 0.00 | 0.00 | 84 | 986.5 |
| 20260507081817 | 54 | 6 | 2.0 | 4.0 | 0.00 | 0.00 | 0.00 | 84 | 986.5 |
| 20260507081017 | 53 | 7 | 1.0 | 4.0 | 0.00 | 0.00 | 0.00 | 86 | 986.4 |
| 20260507080217 | 53 | 7 | 1.0 | 4.0 | 0.00 | 0.00 | 0.00 | 86 | 986.4 |
| 20260507075817 | 53 | 360 | 1.0 | 4.0 | 0.00 | 0.00 | 0.00 | 88 | 986.4 |
| 20260507075417 | 53 | 360 | 1.0 | 4.0 | 0.00 | 0.00 | 0.00 | 88 | 986.4 |
| 20260507075017 | 53 | 360 | 1.0 | 4.0 | 0.00 | 0.00 | 0.00 | 88 | 986.4 |
| 20260507074617 | 53 | 360 | 1.0 | 4.0 | 0.00 | 0.00 | 0.00 | 88 | 986.4 |
| 20260507074417 | 53 | 360 | 1.0 | 4.0 | 0.00 | 0.00 | 0.00 | 88 | 986.4 |
| 20260507074217 | 53 | 360 | 1.0 | 4.0 | 0.00 | 0.00 | 0.00 | 88 | 986.4 |
| 20260507074017 | 53 | 360 | 1.0 | 4.0 | 0.00 | 0.00 | 0.00 | 88 | 986.4 |
| 20260507073817 | 53 | 360 | 1.0 | 4.0 | 0.00 | 0.00 | 0.00 | 88 | 986.4 |
| 20260507073717 | 53 | 360 | 1.0 | 4.0 | 0.00 | 0.00 | 0.00 | 88 | 986.4 |
| 20260507073617 | 53 | 360 | 1.0 | 4.0 | 0.00 | 0.00 | 0.00 | 88 | 986.4 |
| 20260507073517 | 53 | 360 | 1.0 | 4.0 | 0.00 | 0.00 | 0.00 | 88 | 986.4 |
| 20260506190817 | 53 | 300 | 3.0 | 6.0 | 0.09 | 0.00 | 0.09 | 89 | 982.9 |
| 20260506183817 | 54 | 298 | 3.0 | 6.0 | 0.09 | 0.00 | 0.09 | 88 | 982.4 |
| 20260506180817 | 54 | 306 | 4.0 | 8.0 | 0.09 | 0.00 | 0.09 | 85 | 982.0 |
| 20260506173817 | 55 | 323 | 4.0 | 12.0 | 0.09 | 0.00 | 0.09 | 82 | 981.7 |
| 20260506170817 | 55 | 315 | 5.0 | 15.0 | 0.09 | 0.00 | 0.09 | 81 | 981.9 |